Novato, CA

2:04 PM PST on December 15, 2019 (GMT -0800)
Gnoss

Weather History for KDVO - October, 2019

Change the Weather History Date:

Saturday, October 26, 2019

  Actual Average (WUND) Record (WUND)
Temperature  
Mean Temperature 62 °F -  
Max Temperature 84 °F - - (-1)
Min Temperature 39 °F - - (-1)
Degree Days  
Heating Degree Days 4    
Growing Degree Days 12 (Base 50)    
Moisture  
Dew Point 39 °F    
Average Humidity 48    
Maximum Humidity 81    
Minimum Humidity 16    
Precipitation  
Precipitation 0.00 in - - ()
Sea Level Pressure  
Sea Level Pressure 29.88 in    
Wind  
Wind Speed 2 mph ()    
Max Wind Speed 8 mph    
Max Gust Speed -    
Visibility 9.9 miles    
Events      
Averages and records for this station are not official NWS values.
T = Trace of Precipitation, MM = Missing Value Source: Averaged Metar Reports

Daily Weather History Graph

Daily Weather History Graph

Search for Another Location

Airport or City:

Astronomy

Oct. 26, 2019 Rise Set
Actual Time 7:29 AM PDT 6:18 PM PDT
Civil Twilight 7:02 AM PDT 6:45 PM PDT
Nautical Twilight 6:31 AM PDT 7:15 PM PDT
Astronomical Twilight 6:01 AM PDT 7:46 PM PDT
Moon 5:34 AM PDT (10/26) 5:54 PM PDT (10/26)
Length of Visible Light 11h 42m
Length of Day
10h 48m
Waning Crescent, 3% of the Moon is Illuminated
Oct 26
Waning Crescent
Oct 27
New
Nov 4
First Quarter
Nov 12
Full
Nov 19
Last Quarter

Hourly Weather History & Observations

Time (PDT) Temp. Windchill Dew Point Humidity Pressure Visibility Wind Dir Wind Speed Gust Speed Precip Events Conditions
12:15 AM 57.2 °F - 35.6 °F 44% 29.96 in 10.0 mi Calm Calm - N/A   Overcast
12:35 AM 55.4 °F - 35.6 °F 47% 29.96 in 10.0 mi Calm Calm - N/A   Overcast
12:55 AM 59.0 °F - 37.4 °F 45% 29.96 in 10.0 mi Calm Calm - N/A   Overcast
1:15 AM 57.2 °F - 39.2 °F 51% 29.96 in 10.0 mi Calm Calm - N/A   Overcast
1:35 AM 55.4 °F - 35.6 °F 47% 29.96 in 10.0 mi Calm Calm - N/A   Overcast
1:55 AM 57.2 °F - 41.0 °F 55% 29.95 in 10.0 mi SSW 5.8 mph - N/A   Overcast
2:15 AM 46.4 °F 45.2 °F 33.8 °F 62% 29.95 in 10.0 mi NNE 3.5 mph - N/A   Overcast
2:35 AM 48.2 °F - 39.2 °F 71% 29.95 in 10.0 mi North 5.8 mph - N/A   Overcast
2:55 AM 51.8 °F - 41.0 °F 67% 29.94 in 10.0 mi Calm Calm - N/A   Mostly Cloudy
3:15 AM 51.8 °F - 41.0 °F 67% 29.93 in 10.0 mi Calm Calm - N/A   Clear
3:35 AM 50.0 °F - 37.4 °F 62% 29.93 in 10.0 mi Calm Calm - N/A   Clear
3:55 AM 50.0 °F - 37.4 °F 62% 29.93 in 10.0 mi NNW 4.6 mph - N/A   Clear
4:15 AM 51.8 °F - 35.6 °F 54% 29.92 in 10.0 mi Calm Calm - N/A   Clear
4:35 AM 50.0 °F - 39.2 °F 66% 29.92 in 10.0 mi South 3.5 mph - N/A   Clear
4:55 AM 44.6 °F - 33.8 °F 66% 29.91 in 10.0 mi Calm Calm - N/A   Clear
5:15 AM 41.0 °F - 32.0 °F 70% 29.91 in 10.0 mi Calm Calm - N/A   Clear
5:35 AM 46.4 °F - 35.6 °F 66% 29.91 in 10.0 mi Calm Calm - N/A   Clear
5:55 AM 48.2 °F - 37.4 °F 66% 29.91 in 10.0 mi Calm Calm - N/A   Partly Cloudy
6:15 AM 48.2 °F - 37.4 °F 66% 29.90 in 10.0 mi Calm Calm - N/A   Partly Cloudy
6:35 AM 41.0 °F 37.1 °F 33.8 °F 76% 29.91 in 10.0 mi North 5.8 mph - N/A   Clear
6:55 AM 46.4 °F - 37.4 °F 71% 29.91 in 10.0 mi Calm Calm - N/A   Clear
7:15 AM 44.6 °F - 37.4 °F 76% 29.91 in 10.0 mi Calm Calm - N/A   Clear
7:35 AM 48.2 °F - 39.2 °F 71% 29.91 in 10.0 mi Calm Calm - N/A   Clear
7:55 AM 39.2 °F 35.0 °F 33.8 °F 81% 29.91 in 10.0 mi NNW 5.8 mph - N/A   Clear
8:15 AM 48.2 °F - 39.2 °F 71% 29.91 in 10.0 mi Calm Calm - N/A   Clear
8:35 AM 51.8 °F - 39.2 °F 62% 29.91 in 10.0 mi Calm Calm - N/A   Clear
8:55 AM 53.6 °F - 41.0 °F 62% 29.91 in 10.0 mi Calm Calm - N/A   Clear
9:15 AM 55.4 °F - 41.0 °F 58% 29.91 in 10.0 mi Calm Calm - N/A   Clear
9:35 AM 59.0 °F - 42.8 °F 55% 29.91 in 10.0 mi North 3.5 mph - N/A   Clear
9:55 AM 60.8 °F - 42.8 °F 52% 29.91 in 10.0 mi Calm Calm - N/A   Clear
10:15 AM 64.4 °F - 39.2 °F 40% 29.90 in 10.0 mi Calm Calm - N/A   Clear
10:35 AM 66.2 °F - 42.8 °F 43% 29.90 in 10.0 mi North 5.8 mph - N/A   Clear
10:55 AM 69.8 °F - 41.0 °F 35% 29.90 in 10.0 mi Calm Calm - N/A   Clear
11:15 AM 71.6 °F - 41.0 °F 33% 29.89 in 10.0 mi Calm Calm - N/A   Clear
11:35 AM 73.4 °F - 39.2 °F 29% 29.87 in 10.0 mi Variable 3.5 mph - N/A   Clear
11:55 AM 75.2 °F - 39.2 °F 27% 29.86 in 10.0 mi Calm Calm - N/A   Clear
12:15 PM 77.0 °F - 39.2 °F 26% 29.86 in 9.0 mi Variable 3.5 mph - N/A   Clear
12:35 PM 78.8 °F - 42.8 °F 28% 29.85 in 5.0 mi Variable 5.8 mph - N/A   Haze
12:55 PM 78.8 °F - 41.0 °F 26% 29.83 in 10.0 mi SE 5.8 mph - N/A   Clear
1:15 PM 80.6 °F - 41.0 °F 24% 29.82 in 10.0 mi Variable 4.6 mph - N/A   Clear
1:35 PM 82.4 °F - 37.4 °F 20% 29.81 in 10.0 mi Variable 4.6 mph - N/A   Clear
1:55 PM 82.4 °F - 35.6 °F 19% 29.80 in 10.0 mi ESE 6.9 mph - N/A   Clear
2:15 PM 84.2 °F - 33.8 °F 16% 29.79 in 10.0 mi ESE 5.8 mph - N/A   Clear
2:35 PM 82.4 °F - 33.8 °F 17% 29.78 in 10.0 mi ESE 6.9 mph - N/A   Clear
3:15 PM 80.6 °F - 39.2 °F 23% 29.77 in 10.0 mi ESE 8.1 mph - N/A   Clear
3:35 PM 78.8 °F - 41.0 °F 26% 29.77 in 10.0 mi ESE 5.8 mph - N/A   Clear
3:55 PM 77.0 °F - 41.0 °F 28% 29.76 in 10.0 mi Calm Calm - N/A   Clear
4:15 PM 77.0 °F - 44.6 °F 32% 29.76 in 10.0 mi Calm Calm - N/A   Clear
4:35 PM 78.8 °F - 42.8 °F 28% 29.75 in 10.0 mi Calm Calm - N/A   Clear
4:55 PM 78.8 °F - 37.4 °F 23% 29.74 in 10.0 mi Calm Calm - N/A   Clear
5:15 PM 77.0 °F - 48.2 °F 36% 29.74 in 10.0 mi Calm Calm - N/A   Unknown